[[{"header":{"parameterUnit":"m.s-1","parameterCategory":1,"la1":30.2992,"la2":30.254,"lo1":-89.0895,"lo2":-89.0443,"dy":0.0025,"dx":0.0025,"nx":19,"ny":19,"refTime":"2026-05-17T03:00:00:Z","depth":0,"parameterNumber":2,"parameterNumberName":"U-component_of_WINDS"},"data":[0,0,0,-5.2314,-5.2315,-5.2343,-5.2343,-5.2404,-5.2405,0,0,0,0,0,0,0,0,0,0,0,-5.232,-5.2321,-5.2314,-5.2315,-5.2343,-5.2343,-5.2404,-5.2405,0,0,0,0,0,0,0,0,0,0,0,-5.232,-5.2321,-5.2322,-5.2315,-5.2343,-5.2343,-5.2404,-5.2374,0,0,0,0,0,0,0,0,0,0,-5.2342,-5.2363,-5.2321,-5.2322,-5.2315,-5.2343,-5.2343,-5.2372,-5.2376,-5.2403,0,-5.243,0,-5.2419,-5.2411,-5.2411,0,0,0,-5.2304,-5.236,-5.2354,-5.2322,-5.2316,-5.2343,-5.2327,-5.2374,-5.2378,-5.2408,-5.243,-5.2432,-5.242,-5.2411,-5.2412,-5.2603,-5.2605,0,0,-5.2302,-5.2333,-5.2351,-5.2357,-5.2354,-5.2326,-5.2328,-5.2376,-5.2403,-5.2431,-5.2433,-5.2421,-5.2412,-5.2413,-5.2602,-5.2604,0,0,0,-5.2305,-5.2333,-5.2325,-5.2356,-5.2359,-5.2327,-5.2329,-5.2401,-5.2396,-5.2433,-5.2421,-5.2412,-5.2413,-5.26,-5.2603,-5.2702,0,0,0,-5.2304,-5.2334,-5.2325,-5.2344,-5.2358,-5.238,-5.2353,-5.2392,-5.2397,-5.2421,-5.2412,-5.2414,-5.2599,-5.2602,-5.2696,-5.2743,0,0,0,-5.2314,-5.2335,-5.2344,-5.2346,-5.2359,-5.2378,-5.2376,-5.2392,-5.239,-5.2411,-5.2415,-5.2598,-5.2601,-5.269,-5.2734,-5.2802,0,0,0,-5.2333,-5.2432,-5.2347,-5.2453,-5.2359,-5.244,-5.2375,-5.2434,-5.2464,-5.2413,-5.2599,-5.2602,-5.2688,-5.2728,-5.2796,-5.2863,-5.2895,0,0,-5.2475,-5.245,-5.251,-5.2435,-5.2539,-5.2433,-5.2552,-5.255,-5.2524,-5.2579,-5.2583,-5.2698,-5.2733,-5.2801,-5.3063,-5.3089,0,0,0,-5.2566,-5.2609,-5.263,-5.2661,-5.2663,-5.2668,-5.2645,-5.2645,-5.269,-5.2558,-5.2741,-5.2761,-5.2799,-5.283,-5.2851,-5.2882,-5.2618,-5.2618,-5.2618,-5.2809,-5.2772,-5.2869,-5.2836,-5.2867,-5.2844,-5.2866,-5.2862,-5.2814,-5.2859,-5.2873,-5.3037,-5.3075,-5.309,-5.3123,-5.2908,-5.2908,-5.2908,-5.2909,-5.3012,-5.3068,-5.3006,-5.3077,-5.3038,-5.3098,-5.3082,-5.3047,-5.3098,-5.3022,-5.3054,-5.2973,-5.3119,-5.3146,-5.2916,-5.2915,-5.2914,-5.2913,-5.2912,-5.3166,-5.3186,-5.3185,-5.3227,-5.3265,-5.3229,-5.3282,-5.3244,-5.3209,-5.3241,-5.3253,-5.3251,-5.3244,-5.325,-5.3251,-5.3251,-5.3252,-5.3252,-5.3253,-5.3323,-5.332,-5.3368,-5.3382,-5.3398,-5.3415,-5.3396,-5.3411,-5.3418,-5.3387,-5.3386,-5.3335,-5.3141,-5.3092,-5.3261,-5.326,-5.3258,-5.3258,-5.3257,-5.3539,-5.3486,-5.3561,-5.3577,-5.3591,-5.3631,-5.3585,-5.362,-5.3627,-5.3654,-5.3598,-5.3461,-5.3432,-5.3415,-5.3374,-5.3605,-5.3605,-5.3605,-5.3605,-5.3667,-5.3651,-5.372,-5.3749,-5.3774,-5.374,-5.3828,-5.3816,-5.3795,-5.3797,-5.3759,-5.3703,-5.3687,-5.3668,-5.3645,-5.3606,-5.3891,-5.3892,-5.3892,-5.3798,-5.3782,-5.3863,-5.3842,-5.3852,-5.3861,-5.3942,-5.3979,-5.3944,-5.3903,-5.3799,-5.3787,-5.3695,-5.3667,-5.362,-5.3585,-5.3513,0,0]},{"header":{"parameterUnit":"m.s-1","parameterCategory":1,"la1":30.2992,"la2":30.254,"lo1":-89.0895,"lo2":-89.0443,"dy":0.0025,"dx":0.0025,"nx":19,"ny":19,"refTime":"2026-05-17T03:00:00:Z","depth":0,"parameterNumber":3,"parameterNumberName":"V-component_of_WINDS"},"data":[0,0,0,3.1308,3.1307,3.1268,3.1268,3.1206,3.1205,0,0,0,0,0,0,0,0,0,0,0,3.1312,3.1311,3.1308,3.1307,3.1269,3.1268,3.1206,3.1205,0,0,0,0,0,0,0,0,0,0,0,3.1312,3.1312,3.1311,3.1306,3.1269,3.1268,3.1206,3.1239,0,0,0,0,0,0,0,0,0,0,3.1278,3.1276,3.1312,3.1311,3.1306,3.1269,3.1268,3.1241,3.1237,3.1217,0,3.12,0,3.1201,3.12,3.12,0,0,0,3.1311,3.1279,3.1276,3.1311,3.1306,3.1269,3.1287,3.1239,3.1234,3.1212,3.1199,3.1197,3.12,3.1199,3.1199,3.1077,3.1076,0,0,3.1313,3.1301,3.1279,3.1272,3.128,3.1288,3.1286,3.1236,3.122,3.1199,3.1196,3.1199,3.1199,3.1198,3.1078,3.1077,0,0,0,3.1316,3.1302,3.13,3.1275,3.1269,3.1287,3.1284,3.1223,3.1223,3.1195,3.1199,3.1199,3.1198,3.1079,3.1078,3.1029,0,0,0,3.1318,3.1304,3.1301,3.1293,3.127,3.1246,3.1271,3.1226,3.1221,3.1199,3.1199,3.1197,3.108,3.1078,3.1032,3.1008,0,0,0,3.1317,3.1304,3.1296,3.1292,3.1276,3.1247,3.1245,3.1226,3.1223,3.12,3.1197,3.108,3.1078,3.1035,3.1013,3.0974,0,0,0,3.1312,3.1252,3.1295,3.123,3.1276,3.1218,3.1245,3.1202,3.1176,3.1198,3.108,3.1078,3.1036,3.1016,3.0977,3.0939,3.0922,0,0,3.1229,3.1241,3.1204,3.1242,3.1173,3.1225,3.1148,3.1134,3.1142,3.1098,3.1095,3.1031,3.1013,3.0974,3.0831,3.0818,0,0,0,3.1173,3.1146,3.1131,3.1107,3.1097,3.1086,3.1086,3.1081,3.1046,3.1117,3.1007,3.0996,3.0974,3.0956,3.0945,3.0927,3.1069,3.1069,3.1069,3.1038,3.1054,3.0993,3.1004,3.0981,3.0983,3.0965,3.0958,3.0978,3.0952,3.0939,3.0851,3.083,3.0821,3.0802,3.092,3.092,3.0919,3.0919,3.0919,3.0884,3.0915,3.0868,3.0884,3.0843,3.0842,3.0859,3.0822,3.0861,3.0842,3.0883,3.0806,3.0791,3.0916,3.0916,3.0917,3.0917,3.0917,3.0833,3.0819,3.0816,3.0785,3.0759,3.0772,3.0737,3.0752,3.0765,3.0747,3.0735,3.0736,3.074,3.074,3.074,3.074,3.074,3.0739,3.0739,3.0745,3.0743,3.0713,3.0699,3.0687,3.0673,3.0675,3.0663,3.0653,3.0667,3.0667,3.069,3.0796,3.0823,3.0734,3.0735,3.0736,3.0736,3.0737,3.0619,3.0651,3.0604,3.0592,3.0578,3.0552,3.0573,3.0547,3.0539,3.0521,3.0549,3.0625,3.0637,3.0646,3.0669,3.0546,3.0546,3.0546,3.0546,3.0547,3.0556,3.0513,3.0493,3.0476,3.049,3.0437,3.0438,3.0444,3.044,3.046,3.049,3.0499,3.0507,3.0519,3.054,3.0387,3.0386,3.0386,3.0472,3.048,3.0432,3.0441,3.0431,3.0422,3.0372,3.0347,3.036,3.038,3.0437,3.0444,3.0494,3.0509,3.053,3.0548,3.0587,0,0]}]]